Regional Weather Roundup
Issued by NWS Midland/Odessa, TX

Skip options and go directly to product.
Home | Oldest Version | Previous Version | Current Version | All | Text Only | Save Text | Print | Product List | Glossary Off

Skip product version selection by date and time.   

609
ASUS44 KMAF 100810
RWRMAF
MIDLAND AREA WEATHER ROUNDUP
NATIONAL WEATHER SERVICE MIDLAND TX
200 AM CST SAT DEC 10 2016

...IN SOUTHWEST TEXAS AND SOUTHEAST NEW MEXICO...

CITY           SKY/WX    TMP DP  RH WIND       PRES   REMARKS
ALPINE         CLOUDY    41  37  85 SW12      30.35S WCI  34
ANDREWS        FAIR      30  30 100 S6        30.27F WCI  24
ARTESIA        CLOUDY    27  27 100 CALM      30.23F
BIG SPRING     CLOUDY    32  29  87 S8        30.33F WCI  25
CARLSBAD       CLOUDY    28  28 100 CALM      30.23F
DRYDEN           N/A     31  29  92 N3        30.34F
FORT STOCKTON  CLOUDY    35  33  92 S9        30.27S WCI  28
GUAD PASS      NOT AVBL
HOBBS          CLOUDY    28  28 100 CALM      30.26S
MARFA          FOG       29  28  96 N3        30.33F VSB 1/2
MIDLAND AIRPK  CLOUDY    33  31  89 S6        30.29F WCI  28
MIDLAND INTL   CLOUDY    33  29  85 S9        30.29F WCI  25
ODESSA         CLOUDY    33  28  81 S7        30.29S WCI  27
PECOS          CLOUDY    32  31  95 E5        30.27F WCI  27
PRESIDIO       FAIR      38  34  87 N6        30.32F WCI  33
SEMINOLE       CLOUDY    30  29  98 CALM      30.27F
SNYDER         CLOUDY    31  27  83 S10       30.31F WCI  23
WINK           CLOUDY    33  31  92 SE8       30.25F WCI  26
$$
...OTHER STATIONS IN TEXAS...

CITY           SKY/WX    TMP DP  RH WIND       PRES   REMARKS
ABILENE        CLOUDY    34  24  67 S10       30.37S WCI  26
AMARILLO       CLOUDY    27  26  96 S12       30.19F WCI  17
AUSTIN         CLEAR     31  29  92 CALM      30.47F
BROWNSVILLE    CLOUDY    47  36  65 N13G20    30.40F
CORPUS CHRISTI CLOUDY    48  33  56 NE12      30.46F
DALLAS FTW     CLOUDY    37  21  52 SE9       30.47F WCI  30
DEL RIO        CLOUDY    42  34  73 SE10      30.41F WCI  36
EL PASO        PTCLDY    34  28  79 NE3       30.28F
HOUSTON INT    PTCLDY    39  30  70 NE3       30.51S
LUBBOCK        CLOUDY    32  29  88 S10       30.23F WCI  24
SAN ANGELO     CLOUDY    32  26  78 CALM      30.38S
SAN ANTONIO    CLOUDY    40  27  59 CALM      30.46F
WACO           CLEAR     34  29  82 SE3       30.49S
WICHITA FALLS  NOT AVBL
$$
...OTHER LOCATIONS IN NEW MEXICO...

CITY           SKY/WX    TMP DP  RH WIND       PRES   REMARKS
ALAMAGORDO     NOT AVBL
ALBUQUERQUE    CLOUDY    32  24  72 CALM      30.28F
CANNON AFB     CLOUDY    23  23 100 SW6       30.19F WCI  16
CLOVIS         CLOUDY    28  25  86 SW13      30.18F WCI  18
HOLLOMAN AFB   CLOUDY    27  20  74 CALM      30.34F
ROSWELL        CLOUDY    26  22  84 N5        30.22F WCI  20
RUIDOSO        CLOUDY    39  21  48 CALM      30.29S
SANTA FE       CLOUDY    28  22  78 N3        30.27F
TRUTH OR CONSE MOCLDY    32  25  75 NW7       30.28F WCI  26
TUCUMCARI      CLOUDY    30  25  81 N8        30.14R WCI  22
$$

  • National Weather Service
  • Southern Region Headquarters
  • 819 Taylor Street, Room 10A06
  • Fort Worth, TX 76102
  • Page Author: NWS Fort Worth
  • Web Master: SR-SRH.Webmaster@noaa.gov
  •  
  • Page last modified: 30-Sep-2016 6:36 PM UTC
USA.gov is the U.S. government's official web portal to all federal, state and local government web resources and services.